This is the latest recevied weather packets stored in our database for station/object PD2BVG. If no packets are shown the sender has not sent any weather packets the latest 1 day(s).
| Time | Temp. | Humidity | Pressure | Rain* | Wind** | Luminosity | Snow |
|---|---|---|---|---|---|---|---|
| 1777970342 | 12.22° C | 80% | 1012.4 hPa | 0 mm | 2.24 m/s, 0° | 325 W/m² | - |
| 1777970282 | 12.22° C | 81% | 1012.3 hPa | 0 mm | 1.79 m/s, 3° | 259 W/m² | - |
| 1777970222 | 12.22° C | 80% | 1012.3 hPa | 0 mm | 1.79 m/s, 8° | 343 W/m² | - |
| 1777970162 | 12.22° C | 80% | 1012.3 hPa | 0 mm | 2.68 m/s, 1° | 220 W/m² | - |
| 1777970104 | 12.22° C | 81% | 1012.4 hPa | 0 mm | 2.68 m/s, 11° | 216 W/m² | - |
| 1777970042 | 12.22° C | 81% | 1012.4 hPa | 0 mm | 2.24 m/s, 345° | 234 W/m² | - |
| 1777969982 | 12.22° C | 81% | 1012.4 hPa | 0 mm | 2.68 m/s, 16° | 234 W/m² | - |
| 1777969922 | 12.22° C | 81% | 1012.3 hPa | 0 mm | 2.24 m/s, 14° | 290 W/m² | - |
| 1777969861 | 12.22° C | 81% | 1012.4 hPa | 0 mm | 1.79 m/s, 357° | 459 W/m² | - |
| 1777969802 | 12.22° C | 80% | 1012.4 hPa | 0 mm | 2.24 m/s, 358° | 201 W/m² | - |
| 1777969742 | 12.22° C | 80% | 1012.4 hPa | 0 mm | 2.68 m/s, 31° | 194 W/m² | - |
| 1777969682 | 12.22° C | 80% | 1012.4 hPa | 0 mm | 3.13 m/s, 1° | 211 W/m² | - |
| 1777969625 | 12.22° C | 80% | 1012.4 hPa | 0 mm | 2.68 m/s, 355° | 413 W/m² | - |
| 1777969562 | 12.22° C | 80% | 1012.4 hPa | 0 mm | 2.68 m/s, 31° | 413 W/m² | - |
| 1777969506 | 12.22° C | 80% | 1012.4 hPa | 0 mm | 2.68 m/s, 0° | 371 W/m² | - |
| 1777969445 | 12.22° C | 80% | 1012.4 hPa | 0 mm | 3.13 m/s, 23° | 373 W/m² | - |
| 1777969384 | 12.22° C | 80% | 1012.4 hPa | 0 mm | 2.68 m/s, 35° | 373 W/m² | - |
| 1777969324 | 12.22° C | 82% | 1012.4 hPa | 0 mm | 2.68 m/s, 0° | 366 W/m² | - |
| 1777969264 | 12.22° C | 82% | 1012.4 hPa | 0 mm | 3.13 m/s, 345° | 332 W/m² | - |
| 1777969204 | 12.22° C | 82% | 1012.4 hPa | 0 mm | 2.68 m/s, 44° | 313 W/m² | - |
| 1777969142 | 12.22° C | 82% | 1012.3 hPa | 0 mm | 1.79 m/s, 0° | 313 W/m² | - |
| 1777969082 | 12.22° C | 82% | 1012.4 hPa | 0 mm | 2.24 m/s, 24° | 253 W/m² | - |
| 1777969024 | 12.22° C | 81% | 1012.4 hPa | 0 mm | 3.13 m/s, 0° | 171 W/m² | - |
| 1777968962 | 12.22° C | 82% | 1012.3 hPa | 0 mm | 3.13 m/s, 0° | 171 W/m² | - |
| 1777968903 | 12.22° C | 82% | 1012.3 hPa | 0 mm | 2.24 m/s, 17° | 174 W/m² | - |
* Rain latest hour (hover to see other rain measurements)
** Current wind speed in m/s (hover to see current wind gust speed)